2023/01/23 23:27:50+0000,-34.27,-42.31,-32.60,-42.51,-44.66,-53.57
2023/01/23 23:28:42+0000,-34.94,-44.16,-32.84,-41.83,-45.24,-50.43
2023/01/23 23:29:34+0000,-34.85,-43.68,-33.42,-42.67,-44.03,-51.59
2023/01/23 23:30:26+0000,-34.46,-43.77,-32.79,-42.00,-45.86,-50.39
2023/01/23 23:31:25+0000,-34.74,-43.61,-32.52,-41.40,-45.60,-53.19
2023/01/23 23:32:18+0000,-34.50,-43.21,-32.62,-41.80,-44.07,-54.85
2023/01/23 23:33:10+0000,-34.89,-43.34,-32.63,-41.71,-45.11,-50.60
2023/01/23 23:34:02+0000,-35.61,-43.21,-32.33,-42.29,-45.21,-54.15
2023/01/23 23:34:54+0000,-34.26,-42.72,-32.76,-43.00,-43.81,-50.34
2023/01/23 23:35:46+0000,-34.23,-44.08,-32.75,-41.86,-48.34,-54.59
2023/01/23 23:36:38+0000,-35.53,-44.22,-32.70,-42.32,-48.25,-52.64
2023/01/23 23:37:30+0000,-34.18,-43.06,-32.74,-42.47,-44.76,-50.26
2023/01/23 23:38:22+0000,-35.80,-42.59,-33.63,-42.16,-48.39,-49.03
2023/01/23 23:39:14+0000,-34.60,-42.82,-34.15,-42.34,-47.72,-52.00
2023/01/23 23:40:06+0000,-35.13,-43.42,-34.08,-41.91,-47.78,-52.65
2023/01/23 23:41:05+0000,-34.65,-42.36,-33.95,-44.21,-45.66,-53.89
2023/01/23 23:41:57+0000,-35.30,-42.70,-33.74,-42.26,-45.61,-50.17
2023/01/23 23:42:49+0000,-36.61,-43.09,-34.17,-43.68,-45.11,-49.72
2023/01/23 23:43:41+0000,-35.26,-44.17,-33.93,-42.14,-46.50,-53.42
2023/01/23 23:44:34+0000,-35.93,-42.72,-33.75,-44.00,-44.72,-54.16
2023/01/23 23:45:26+0000,-35.71,-43.76,-33.25,-43.00,-45.87,-53.29
2023/01/23 23:46:18+0000,-35.08,-43.79,-34.45,-41.51,-44.13,-54.72
2023/01/23 23:47:10+0000,-35.85,-43.62,-34.46,-42.72,-45.03,-52.30
2023/01/23 23:48:02+0000,-35.70,-43.08,-34.15,-40.34,-44.49,-54.34
2023/01/23 23:48:54+0000,-34.42,-43.73,-32.72,-40.94,-43.69,-52.66
2023/01/23 23:49:46+0000,-34.10,-43.97,-32.63,-41.05,-43.58,-50.60
2023/01/23 23:50:38+0000,-34.98,-43.67,-32.87,-42.75,-44.91,-52.42
2023/01/23 23:51:37+0000,-35.77,-40.59,-33.80,-42.35,-44.91,-49.74
2023/01/23 23:52:30+0000,-33.79,-42.91,-33.49,-41.42,-45.18,-52.29
2023/01/23 23:53:22+0000,-34.43,-44.04,-33.18,-42.23,-43.59,-52.69
2023/01/23 23:54:14+0000,-35.88,-43.65,-33.55,-41.74,-43.51,-50.36
2023/01/23 23:55:06+0000,-34.81,-43.70,-32.54,-43.33,-43.96,-51.38
2023/01/23 23:55:58+0000,-35.07,-44.32,-33.93,-41.28,-44.34,-50.35
2023/01/23 23:56:50+0000,-35.77,-43.50,-33.96,-43.35,-43.77,-51.56
2023/01/23 23:57:42+0000,-35.08,-43.33,-33.11,-42.56,-46.63,-51.97
2023/01/23 23:58:34+0000,-35.52,-42.89,-33.25,-42.40,-45.60,-52.82
2023/01/23 23:59:26+0000,-35.64,-43.52,-33.95,-42.32,-46.45,-52.43
2023/01/24 00:00:18+0000,-35.17,-43.80,-33.29,-42.56,-44.65,-52.65
2023/01/24 00:01:20+0000,-35.79,-44.74,-33.70,-42.53,-43.15,-52.13
2023/01/24 00:02:13+0000,-34.39,-40.56,-33.89,-42.37,-44.85,-51.77
2023/01/24 00:03:05+0000,-34.98,-42.73,-32.69,-42.67,-43.73,-51.56
2023/01/24 00:03:57+0000,-35.02,-44.12,-33.10,-40.00,-43.19,-52.38
2023/01/24 00:04:49+0000,-33.48,-43.31,-32.82,-42.55,-44.83,-52.16
2023/01/24 00:05:41+0000,-34.40,-43.94,-33.48,-41.57,-45.09,-51.92
2023/01/24 00:06:33+0000,-34.12,-43.49,-32.74,-43.54,-43.65,-50.84
2023/01/24 00:07:25+0000,-34.96,-44.64,-33.44,-41.81,-45.28,-51.58
2023/01/24 00:08:17+0000,-35.09,-43.53,-32.99,-42.58,-45.51,-52.41
2023/01/24 00:09:09+0000,-34.86,-43.86,-33.98,-42.42,-45.62,-49.97
2023/01/24 00:10:01+0000,-35.27,-43.77,-34.81,-42.05,-44.62,-50.49
2023/01/24 00:11:00+0000,-35.18,-43.51,-32.97,-41.77,-43.97,-52.94
2023/01/24 00:11:52+0000,-34.96,-42.71,-33.22,-42.37,-44.42,-49.96
2023/01/24 00:12:44+0000,-34.56,-42.07,-32.83,-38.41,-43.93,-50.17
2023/01/24 00:13:36+0000,-35.89,-43.35,-32.98,-38.56,-43.62,-51.30
2023/01/24 00:14:28+0000,-34.51,-42.31,-34.39,-42.09,-44.17,-52.14
2023/01/24 00:15:20+0000,-34.98,-44.40,-31.99,-42.86,-44.55,-51.89
2023/01/24 00:16:12+0000,-34.70,-43.67,-33.42,-38.01,-44.58,-51.84
2023/01/24 00:17:04+0000,-35.06,-43.03,-33.99,-43.06,-43.71,-50.30
2023/01/24 00:17:56+0000,-35.38,-44.20,-32.90,-43.18,-44.76,-48.99
2023/01/24 00:18:48+0000,-34.13,-43.83,-30.63,-43.33,-44.15,-47.83
2023/01/24 00:19:41+0000,-34.90,-43.35,-34.01,-39.83,-45.85,-49.16
2023/01/24 00:20:33+0000,-35.05,-44.96,-33.15,-43.52,-44.74,-50.12
2023/01/24 00:21:32+0000,-34.16,-44.12,-32.64,-41.50,-44.95,-52.02
2023/01/24 00:22:24+0000,-34.33,-43.82,-31.65,-42.67,-45.67,-50.64
2023/01/24 00:23:16+0000,-34.38,-44.19,-31.27,-40.83,-44.59,-52.30
2023/01/24 00:24:08+0000,-33.94,-43.72,-32.33,-38.42,-45.08,-49.66
2023/01/24 00:25:00+0000,-32.84,-43.75,-32.62,-41.66,-44.80,-51.09
2023/01/24 00:25:52+0000,-33.96,-44.00,-32.63,-41.36,-44.32,-49.61
2023/01/24 00:26:44+0000,-33.95,-43.72,-32.62,-41.22,-44.26,-48.96
2023/01/24 00:27:36+0000,-33.65,-42.92,-32.51,-37.32,-44.89,-49.55
2023/01/24 00:28:28+0000,-33.24,-44.25,-32.86,-41.19,-45.24,-51.58
2023/01/24 00:29:20+0000,-33.81,-43.59,-32.29,-41.24,-43.51,-51.89
2023/01/24 00:30:13+0000,-33.50,-44.46,-33.12,-39.16,-43.70,-49.35
2023/01/24 00:31:13+0000,-33.93,-43.93,-32.84,-38.24,-44.13,-51.21
2023/01/24 00:32:05+0000,-33.77,-44.69,-32.35,-42.54,-43.68,-49.40
2023/01/24 00:32:57+0000,-33.41,-45.36,-33.01,-41.70,-44.38,-51.52
2023/01/24 00:33:49+0000,-33.99,-43.62,-31.82,-42.28,-41.54,-51.35
2023/01/24 00:34:41+0000,-35.12,-44.67,-32.29,-40.00,-44.70,-48.50
2023/01/24 00:35:33+0000,-33.05,-44.20,-31.54,-39.71,-43.39,-47.49
2023/01/24 00:36:25+0000,-33.95,-45.68,-32.64,-41.99,-44.43,-51.06
2023/01/24 00:37:17+0000,-33.54,-45.09,-32.07,-40.50,-43.06,-52.04
2023/01/24 00:38:09+0000,-33.47,-43.91,-32.93,-41.06,-45.13,-49.95
2023/01/24 00:39:01+0000,-33.51,-44.98,-33.03,-41.60,-44.09,-51.86
2023/01/24 00:39:54+0000,-33.76,-45.29,-32.56,-41.30,-43.61,-51.79
2023/01/24 00:40:46+0000,-33.41,-41.32,-32.85,-41.86,-44.69,-49.65
2023/01/24 00:41:54+0000,-33.39,-44.68,-33.01,-42.05,-43.50,-50.14
2023/01/24 00:42:46+0000,-33.53,-43.57,-32.67,-41.37,-44.07,-51.83
2023/01/24 00:43:38+0000,-33.39,-44.00,-32.69,-41.53,-44.68,-50.15
2023/01/24 00:44:30+0000,-33.28,-40.37,-32.50,-41.04,-44.09,-48.68
2023/01/24 00:45:22+0000,-33.63,-45.04,-33.07,-41.30,-43.97,-50.59
2023/01/24 00:46:14+0000,-33.66,-43.36,-33.24,-41.00,-45.06,-49.95
2023/01/24 00:47:06+0000,-33.29,-43.57,-32.33,-41.09,-44.33,-47.41
2023/01/24 00:47:58+0000,-33.31,-43.72,-32.68,-40.16,-44.72,-49.05
2023/01/24 00:48:51+0000,-33.94,-44.04,-32.47,-40.34,-44.09,-50.16
2023/01/24 00:49:43+0000,-33.18,-44.25,-32.44,-41.06,-43.62,-48.26
2023/01/24 00:50:35+0000,-33.26,-42.93,-32.19,-42.07,-44.57,-49.13
2023/01/24 00:51:40+0000,-34.27,-43.18,-31.68,-39.77,-44.73,-50.30
2023/01/24 00:52:32+0000,-34.83,-44.17,-33.03,-39.90,-43.85,-52.13
2023/01/24 00:53:24+0000,-35.32,-43.73,-32.91,-39.32,-43.24,-51.24
2023/01/24 00:54:16+0000,-34.27,-40.93,-33.45,-41.03,-43.78,-49.92
2023/01/24 00:55:08+0000,-33.56,-44.35,-31.95,-40.55,-43.41,-49.87
2023/01/24 00:56:00+0000,-33.24,-43.65,-32.90,-39.77,-44.58,-51.47
2023/01/24 00:56:52+0000,-33.79,-42.80,-32.42,-41.38,-44.35,-50.32
2023/01/24 00:57:44+0000,-33.30,-43.55,-32.17,-42.20,-44.21,-48.10
2023/01/24 00:58:36+0000,-33.36,-42.97,-32.06,-40.77,-44.35,-48.06
2023/01/24 00:59:28+0000,-33.34,-44.45,-32.51,-40.15,-44.27,-50.70
2023/01/24 01:00:20+0000,-34.43,-43.41,-31.67,-41.16,-43.31,-51.18
2023/01/24 01:01:22+0000,-33.51,-43.55,-31.51,-39.64,-44.70,-50.67
2023/01/24 01:02:14+0000,-34.23,-43.94,-32.33,-41.04,-44.13,-50.59
2023/01/24 01:03:06+0000,-33.32,-43.87,-32.20,-41.43,-44.29,-49.75
2023/01/24 01:03:58+0000,-33.85,-40.69,-32.48,-40.82,-43.68,-50.74
2023/01/24 01:04:50+0000,-33.99,-43.69,-32.76,-40.96,-44.84,-50.68
2023/01/24 01:05:42+0000,-33.87,-43.18,-32.36,-42.18,-44.23,-50.59
2023/01/24 01:06:34+0000,-34.41,-44.44,-31.70,-42.00,-44.14,-50.20
2023/01/24 01:07:26+0000,-33.21,-43.65,-32.51,-41.15,-43.19,-51.41
2023/01/24 01:08:18+0000,-33.59,-37.92,-32.71,-41.89,-44.04,-51.33
2023/01/24 01:09:10+0000,-33.86,-39.22,-31.05,-41.50,-43.83,-51.44
2023/01/24 01:10:02+0000,-33.48,-44.45,-32.10,-41.30,-44.95,-51.88
2023/01/24 01:11:08+0000,-33.87,-39.68,-32.44,-41.39,-43.92,-51.22
2023/01/24 01:12:00+0000,-29.00,-43.53,-32.52,-41.09,-44.69,-52.60
2023/01/24 01:12:52+0000,-34.48,-43.61,-31.90,-41.10,-43.89,-52.05
2023/01/24 01:13:44+0000,-33.45,-38.65,-32.33,-41.46,-44.43,-51.49
2023/01/24 01:14:36+0000,-33.81,-44.39,-32.33,-41.01,-44.11,-51.94
2023/01/24 01:15:28+0000,-33.68,-44.18,-33.46,-40.55,-44.41,-52.33
2023/01/24 01:16:20+0000,-34.68,-44.71,-31.78,-41.45,-44.75,-52.21
2023/01/24 01:17:13+0000,-33.29,-43.82,-32.55,-40.85,-44.70,-52.10
2023/01/24 01:18:05+0000,-32.90,-43.94,-32.14,-42.48,-44.19,-51.80
2023/01/24 01:18:57+0000,-33.07,-43.19,-32.77,-41.09,-44.75,-51.14
2023/01/24 01:19:49+0000,-34.00,-39.27,-31.91,-41.22,-44.49,-51.18
2023/01/24 01:20:41+0000,-33.82,-38.15,-32.56,-40.30,-45.18,-51.70
2023/01/24 01:21:40+0000,-33.17,-41.07,-30.47,-40.65,-44.86,-51.95
2023/01/24 01:22:32+0000,-33.37,-43.23,-31.44,-40.94,-44.23,-53.09
2023/01/24 01:23:24+0000,-34.59,-44.11,-31.73,-41.29,-44.54,-52.12
2023/01/24 01:24:16+0000,-33.84,-42.19,-32.32,-40.65,-44.50,-52.36
2023/01/24 01:25:08+0000,-33.56,-44.54,-31.44,-40.05,-43.89,-51.68
2023/01/24 01:26:00+0000,-33.69,-41.10,-31.89,-40.46,-43.54,-49.12
2023/01/24 01:26:52+0000,-33.91,-43.72,-32.47,-40.57,-44.79,-51.60
2023/01/24 01:27:44+0000,-33.66,-39.84,-32.41,-40.51,-44.61,-51.85
2023/01/24 01:28:36+0000,-33.77,-44.29,-31.61,-41.43,-44.40,-52.75
2023/01/24 01:29:28+0000,-32.89,-44.04,-32.22,-40.52,-44.30,-53.03
2023/01/24 01:30:21+0000,-34.23,-43.70,-32.24,-40.22,-44.00,-52.07
2023/01/24 01:31:20+0000,-33.78,-43.09,-32.37,-40.93,-44.43,-52.62
2023/01/24 01:32:12+0000,-33.33,-41.56,-32.40,-40.58,-44.97,-52.93
2023/01/24 01:33:04+0000,-33.48,-43.44,-31.77,-41.83,-44.69,-51.86
2023/01/24 01:33:56+0000,-33.24,-43.70,-31.97,-39.23,-45.27,-53.10
2023/01/24 01:34:48+0000,-33.47,-43.64,-32.23,-41.81,-44.87,-53.34
2023/01/24 01:35:40+0000,-32.89,-43.92,-32.64,-41.21,-44.97,-52.14
2023/01/24 01:36:32+0000,-33.93,-44.27,-32.60,-40.58,-44.88,-53.75
2023/01/24 01:37:24+0000,-33.84,-44.65,-31.42,-40.07,-44.75,-52.92
2023/01/24 01:38:16+0000,-33.71,-44.38,-32.00,-41.25,-44.33,-52.65
2023/01/24 01:39:08+0000,-33.12,-43.94,-31.32,-40.81,-45.33,-52.75
2023/01/24 01:40:00+0000,-33.91,-44.23,-31.68,-40.73,-45.14,-52.79
2023/01/24 01:41:00+0000,-33.00,-44.32,-32.45,-40.35,-44.94,-52.49
2023/01/24 01:41:52+0000,-33.37,-44.97,-31.68,-40.08,-44.93,-52.50
2023/01/24 01:42:44+0000,-32.90,-40.25,-32.87,-41.36,-45.24,-52.34
2023/01/24 01:43:36+0000,-33.24,-44.89,-32.13,-40.92,-44.39,-52.96
2023/01/24 01:44:28+0000,-33.52,-43.78,-32.48,-40.63,-44.43,-52.93
2023/01/24 01:45:20+0000,-33.26,-43.61,-30.55,-41.48,-44.07,-52.82
2023/01/24 01:46:12+0000,-33.57,-43.03,-32.27,-40.34,-45.76,-53.08
2023/01/24 01:47:04+0000,-33.35,-44.17,-32.11,-40.21,-44.82,-52.39
2023/01/24 01:47:56+0000,-32.24,-43.73,-30.09,-40.85,-45.06,-52.93
2023/01/24 01:48:48+0000,-33.03,-43.48,-31.10,-41.25,-44.12,-53.86
2023/01/24 01:49:40+0000,-33.29,-43.51,-32.34,-41.45,-45.13,-52.26
2023/01/24 01:50:32+0000,-32.99,-42.55,-31.76,-41.44,-44.73,-52.57
2023/01/24 01:51:32+0000,-32.87,-44.30,-32.27,-40.20,-44.01,-53.32
2023/01/24 01:52:24+0000,-32.68,-45.22,-31.91,-40.66,-44.76,-52.87
2023/01/24 01:53:16+0000,-33.93,-43.27,-32.71,-41.26,-44.52,-52.79
2023/01/24 01:54:08+0000,-33.00,-44.73,-32.06,-40.90,-44.18,-52.16
2023/01/24 01:55:00+0000,-33.40,-44.16,-31.76,-40.76,-45.01,-53.11
2023/01/24 01:55:52+0000,-33.63,-44.96,-32.06,-41.15,-44.55,-52.63
2023/01/24 01:56:44+0000,-33.17,-43.50,-32.46,-41.39,-45.33,-52.67
2023/01/24 01:57:36+0000,-33.54,-45.02,-32.13,-42.15,-44.27,-52.37
2023/01/24 01:58:28+0000,-33.39,-45.01,-32.92,-41.28,-44.60,-53.11
2023/01/24 01:59:20+0000,-31.86,-43.89,-31.33,-41.81,-44.54,-52.58
2023/01/24 02:00:12+0000,-33.65,-44.40,-32.88,-40.92,-44.28,-52.28
2023/01/24 02:01:12+0000,-33.74,-44.46,-31.82,-41.45,-44.49,-53.04
2023/01/24 02:02:04+0000,-33.08,-43.99,-31.45,-41.05,-43.77,-52.41
2023/01/24 02:02:56+0000,-33.20,-44.25,-32.31,-40.31,-44.74,-51.54
2023/01/24 02:03:48+0000,-33.71,-43.19,-32.23,-41.88,-43.88,-52.04
2023/01/24 02:04:40+0000,-33.57,-42.84,-31.65,-40.34,-44.41,-52.35
2023/01/24 02:05:32+0000,-33.21,-45.14,-31.87,-41.02,-45.19,-52.58
2023/01/24 02:06:24+0000,-33.50,-45.18,-31.67,-40.50,-44.25,-51.36
2023/01/24 02:07:16+0000,-33.16,-45.49,-31.32,-40.65,-44.77,-52.63
2023/01/24 02:08:08+0000,-32.92,-42.81,-32.58,-40.56,-44.86,-52.49
2023/01/24 02:09:01+0000,-33.92,-44.96,-32.45,-40.07,-44.72,-52.51
2023/01/24 02:09:53+0000,-33.90,-45.04,-31.73,-39.44,-44.63,-52.25
2023/01/24 02:10:45+0000,-33.78,-44.03,-32.27,-41.11,-44.55,-51.73
2023/01/24 02:11:44+0000,-34.85,-44.03,-31.94,-40.83,-44.00,-52.26
2023/01/24 02:12:36+0000,-32.72,-44.45,-32.27,-40.58,-44.11,-52.82
2023/01/24 02:13:28+0000,-33.05,-43.80,-32.74,-38.71,-44.56,-51.53
2023/01/24 02:14:20+0000,-31.81,-45.79,-32.29,-39.77,-44.61,-51.66
2023/01/24 02:15:12+0000,-33.67,-43.12,-32.39,-41.09,-44.17,-52.38
2023/01/24 02:16:04+0000,-33.34,-44.58,-32.72,-42.06,-43.73,-51.90
2023/01/24 02:16:56+0000,-34.77,-43.91,-32.43,-38.92,-44.68,-51.44
2023/01/24 02:17:48+0000,-33.74,-44.46,-31.86,-42.14,-44.33,-50.91
2023/01/24 02:18:40+0000,-32.52,-45.33,-32.73,-41.09,-44.45,-51.41
2023/01/24 02:19:32+0000,-32.13,-46.02,-32.36,-38.15,-44.75,-51.64
2023/01/24 02:20:24+0000,-33.19,-44.80,-32.09,-40.32,-44.43,-51.71
2023/01/24 02:21:24+0000,-34.36,-45.17,-32.51,-40.81,-43.96,-51.41
2023/01/24 02:22:16+0000,-33.89,-43.32,-32.34,-41.08,-44.53,-53.03
2023/01/24 02:23:08+0000,-32.87,-44.00,-32.66,-41.26,-44.69,-52.57
2023/01/24 02:24:00+0000,-33.31,-43.99,-32.39,-39.72,-44.24,-51.82
2023/01/24 02:24:52+0000,-33.71,-45.50,-32.27,-39.47,-44.35,-51.67
2023/01/24 02:25:44+0000,-33.58,-45.02,-32.38,-40.52,-44.25,-52.23
2023/01/24 02:26:36+0000,-32.70,-44.70,-32.16,-40.58,-44.35,-52.15
2023/01/24 02:27:28+0000,-33.78,-45.16,-32.46,-39.20,-44.90,-52.45
2023/01/24 02:28:20+0000,-33.92,-44.75,-33.13,-40.65,-43.86,-51.86
2023/01/24 02:29:12+0000,-33.01,-44.52,-32.07,-41.44,-44.99,-52.12
2023/01/24 02:30:05+0000,-31.96,-45.22,-32.29,-42.30,-44.23,-51.22
2023/01/24 02:31:04+0000,-33.45,-44.84,-32.10,-41.70,-45.26,-52.22
2023/01/24 02:31:56+0000,-32.08,-43.68,-32.43,-39.29,-44.03,-52.28
2023/01/24 02:32:48+0000,-32.26,-44.32,-32.54,-41.87,-44.53,-52.37
2023/01/24 02:33:40+0000,-34.22,-44.73,-31.86,-41.40,-44.30,-51.48
2023/01/24 02:34:32+0000,-34.48,-44.61,-32.22,-39.83,-44.69,-51.74
2023/01/24 02:35:24+0000,-31.94,-44.90,-31.94,-39.93,-44.38,-51.25
2023/01/24 02:36:17+0000,-33.93,-45.85,-32.04,-41.39,-43.73,-52.61
2023/01/24 02:37:09+0000,-33.32,-44.42,-31.89,-41.22,-44.40,-51.94
2023/01/24 02:38:01+0000,-34.40,-46.26,-32.98,-36.05,-44.96,-52.44
2023/01/24 02:38:53+0000,-33.97,-46.28,-31.85,-37.50,-44.77,-51.56
2023/01/24 02:39:45+0000,-32.85,-44.78,-32.28,-41.77,-45.10,-51.71
2023/01/24 02:40:37+0000,-33.08,-45.70,-32.29,-41.81,-45.45,-52.03
2023/01/24 02:41:36+0000,-32.98,-45.22,-31.72,-42.74,-45.11,-52.01
2023/01/24 02:42:28+0000,-32.82,-45.46,-32.36,-40.95,-45.14,-52.13
2023/01/24 02:43:20+0000,-35.25,-44.39,-31.65,-43.87,-44.95,-52.16
2023/01/24 02:44:12+0000,-35.17,-43.53,-32.34,-43.71,-44.81,-52.37
2023/01/24 02:45:04+0000,-34.77,-43.97,-31.77,-44.11,-45.26,-52.25
2023/01/24 02:45:56+0000,-35.24,-44.44,-33.10,-43.60,-45.58,-51.43
2023/01/24 02:46:48+0000,-34.33,-44.55,-32.60,-43.97,-44.95,-51.39
2023/01/24 02:47:40+0000,-35.35,-43.03,-32.88,-44.30,-44.58,-51.46
2023/01/24 02:48:32+0000,-35.27,-45.12,-33.34,-40.60,-44.84,-52.07
2023/01/24 02:49:25+0000,-33.51,-44.43,-32.30,-40.99,-45.18,-51.99
2023/01/24 02:50:17+0000,-34.97,-44.29,-32.73,-43.44,-44.66,-52.60
2023/01/24 02:51:16+0000,-35.51,-43.88,-32.52,-43.00,-45.45,-51.56
2023/01/24 02:52:08+0000,-35.07,-44.68,-33.05,-43.48,-45.02,-52.09
2023/01/24 02:53:01+0000,-34.94,-43.74,-33.24,-41.51,-44.87,-51.21
2023/01/24 02:53:53+0000,-34.43,-44.62,-32.71,-41.77,-45.55,-52.52
2023/01/24 02:54:45+0000,-35.64,-43.01,-32.81,-42.64,-45.65,-52.30
2023/01/24 02:55:37+0000,-34.28,-43.96,-32.71,-42.70,-45.60,-52.23
2023/01/24 02:56:29+0000,-34.83,-43.56,-32.55,-42.39,-45.17,-52.67
2023/01/24 02:57:21+0000,-35.18,-43.27,-32.04,-43.74,-45.47,-52.39
2023/01/24 02:58:13+0000,-35.39,-41.75,-32.74,-43.45,-45.76,-52.77
2023/01/24 02:59:05+0000,-35.49,-43.58,-32.42,-43.32,-45.53,-52.27
2023/01/24 02:59:57+0000,-35.46,-43.15,-32.18,-44.02,-45.67,-51.85
2023/01/24 03:00:49+0000,-34.88,-42.48,-32.63,-43.11,-44.87,-52.27
2023/01/24 03:01:49+0000,-34.45,-42.64,-31.34,-43.13,-45.34,-52.13
2023/01/24 03:02:41+0000,-34.86,-41.83,-32.06,-42.77,-45.36,-51.73
2023/01/24 03:03:33+0000,-34.21,-42.53,-32.47,-42.84,-45.06,-51.68
2023/01/24 03:04:25+0000,-33.98,-43.96,-32.79,-43.27,-44.14,-51.34
2023/01/24 03:05:17+0000,-34.12,-43.74,-32.25,-43.58,-45.22,-52.69
2023/01/24 03:06:09+0000,-35.64,-42.30,-32.42,-43.16,-45.55,-51.82
2023/01/24 03:07:01+0000,-34.44,-44.21,-32.41,-42.77,-44.66,-51.87
2023/01/24 03:07:53+0000,-33.28,-43.99,-32.89,-42.85,-44.95,-52.62
2023/01/24 03:08:45+0000,-34.54,-42.29,-32.73,-43.45,-44.71,-51.82
2023/01/24 03:09:37+0000,-34.62,-43.48,-32.92,-43.13,-45.54,-51.85
2023/01/24 03:10:29+0000,-34.11,-44.61,-32.01,-42.78,-45.55,-52.05
2023/01/24 03:11:29+0000,-35.20,-43.93,-32.64,-44.23,-45.19,-51.16
2023/01/24 03:12:21+0000,-35.48,-44.46,-31.53,-43.09,-44.92,-51.94
2023/01/24 03:13:13+0000,-35.40,-43.34,-32.15,-42.93,-45.19,-52.09
2023/01/24 03:14:05+0000,-34.97,-45.38,-32.08,-43.40,-45.08,-51.51
2023/01/24 03:14:57+0000,-34.47,-44.16,-32.28,-44.39,-45.11,-51.46
2023/01/24 03:15:49+0000,-35.02,-42.22,-31.76,-42.90,-44.54,-51.46
2023/01/24 03:16:41+0000,-34.75,-41.54,-31.94,-43.94,-45.36,-51.87
2023/01/24 03:17:33+0000,-35.94,-42.69,-31.95,-43.71,-44.88,-51.88
2023/01/24 03:18:25+0000,-34.83,-43.16,-31.81,-43.96,-45.48,-51.82
2023/01/24 03:19:17+0000,-35.26,-43.20,-32.00,-43.68,-44.96,-51.13
2023/01/24 03:20:09+0000,-35.60,-43.08,-31.11,-43.50,-44.29,-51.48
2023/01/24 03:21:09+0000,-36.34,-42.24,-30.25,-43.24,-44.66,-51.64
2023/01/24 03:22:01+0000,-35.00,-44.32,-32.31,-44.04,-44.98,-51.61
2023/01/24 03:22:53+0000,-34.00,-43.63,-32.18,-43.80,-45.23,-51.47
2023/01/24 03:23:45+0000,-34.59,-42.53,-32.17,-42.98,-45.45,-51.82
2023/01/24 03:24:37+0000,-34.52,-44.48,-31.89,-43.43,-44.94,-52.07
2023/01/24 03:25:29+0000,-34.61,-43.79,-31.61,-44.13,-44.42,-51.88
2023/01/24 03:26:21+0000,-34.00,-44.73,-31.83,-43.74,-45.08,-52.25
2023/01/24 03:27:13+0000,-35.53,-41.97,-32.00,-43.74,-45.10,-51.41
2023/01/24 03:28:05+0000,-36.08,-43.74,-32.85,-44.95,-44.92,-52.09
2023/01/24 03:28:57+0000,-34.46,-44.66,-33.02,-44.38,-45.17,-51.80
2023/01/24 03:29:49+0000,-34.66,-44.02,-32.84,-44.17,-45.04,-52.27
2023/01/24 03:30:41+0000,-34.91,-44.17,-32.75,-44.29,-44.92,-52.00
2023/01/24 03:31:41+0000,-35.03,-43.65,-32.76,-44.55,-44.64,-51.97
2023/01/24 03:32:33+0000,-34.84,-42.86,-32.65,-44.52,-45.15,-52.22
2023/01/24 03:33:25+0000,-35.74,-43.10,-32.09,-42.92,-45.19,-52.07
2023/01/24 03:34:17+0000,-36.02,-39.90,-32.80,-44.30,-44.97,-51.83
2023/01/24 03:35:09+0000,-35.62,-39.70,-33.03,-44.83,-44.74,-51.97
2023/01/24 03:36:01+0000,-35.32,-42.48,-32.96,-45.01,-44.71,-52.53
2023/01/24 03:36:53+0000,-35.69,-43.47,-32.59,-43.92,-45.27,-52.59
2023/01/24 03:37:45+0000,-35.14,-42.61,-33.67,-44.73,-45.02,-52.34
2023/01/24 03:38:37+0000,-35.08,-43.13,-33.40,-44.75,-44.44,-51.62
2023/01/24 03:39:29+0000,-35.64,-44.14,-33.13,-43.81,-44.64,-51.53
2023/01/24 03:40:22+0000,-34.33,-44.93,-31.93,-43.95,-44.96,-51.58
2023/01/24 03:41:21+0000,-35.58,-44.34,-32.48,-41.33,-45.13,-52.02
2023/01/24 03:42:13+0000,-35.54,-42.88,-33.06,-40.75,-44.56,-52.64
2023/01/24 03:43:05+0000,-34.20,-44.45,-32.71,-44.30,-45.03,-51.51
2023/01/24 03:43:57+0000,-35.71,-43.78,-33.94,-45.03,-44.61,-52.37
2023/01/24 03:44:49+0000,-35.49,-41.65,-33.12,-43.62,-45.10,-51.66
2023/01/24 03:45:41+0000,-35.71,-42.07,-33.23,-44.27,-42.76,-50.93
2023/01/24 03:46:33+0000,-35.46,-42.60,-33.13,-44.32,-44.42,-51.66
2023/01/24 03:47:25+0000,-35.15,-43.65,-32.13,-44.53,-45.65,-52.39
2023/01/24 03:48:17+0000,-35.02,-43.82,-32.63,-44.27,-45.76,-52.26
2023/01/24 03:49:09+0000,-35.17,-43.77,-33.32,-44.57,-45.31,-51.29
2023/01/24 03:50:02+0000,-35.38,-44.41,-32.87,-44.91,-44.83,-51.81
2023/01/24 03:51:01+0000,-34.21,-44.19,-33.02,-45.09,-45.28,-52.12
2023/01/24 03:51:53+0000,-35.75,-43.13,-33.19,-43.54,-45.53,-51.38
2023/01/24 03:52:45+0000,-36.21,-42.19,-33.19,-44.48,-45.34,-52.56
2023/01/24 03:53:37+0000,-34.91,-44.60,-32.95,-45.11,-45.27,-51.17
2023/01/24 03:54:29+0000,-35.38,-43.86,-33.28,-44.05,-45.26,-51.60
2023/01/24 03:55:21+0000,-34.11,-45.24,-33.55,-44.64,-46.28,-52.19
2023/01/24 03:56:13+0000,-33.97,-43.52,-32.57,-44.34,-45.03,-52.32
2023/01/24 03:57:05+0000,-34.50,-43.87,-33.28,-44.18,-44.81,-50.90
2023/01/24 03:57:57+0000,-35.01,-43.79,-33.32,-43.81,-44.99,-51.48
2023/01/24 03:58:49+0000,-35.00,-43.69,-32.19,-43.81,-45.13,-51.25
2023/01/24 03:59:41+0000,-34.99,-42.50,-32.20,-44.41,-44.82,-51.76
2023/01/24 04:00:33+0000,-34.75,-42.83,-33.64,-44.48,-44.57,-52.16
2023/01/24 04:01:34+0000,-34.71,-44.77,-32.41,-43.98,-45.34,-51.81
2023/01/24 04:02:26+0000,-34.88,-43.51,-32.97,-43.24,-44.64,-52.03
2023/01/24 04:03:18+0000,-35.30,-42.99,-32.83,-43.97,-44.95,-51.90
2023/01/24 04:04:10+0000,-34.43,-42.42,-33.56,-43.99,-44.25,-51.78
2023/01/24 04:05:02+0000,-34.29,-42.13,-31.87,-43.03,-44.67,-51.43
2023/01/24 04:05:54+0000,-34.12,-43.22,-33.19,-44.18,-45.35,-52.27
2023/01/24 04:06:46+0000,-35.51,-43.26,-32.64,-43.63,-44.81,-51.54
2023/01/24 04:07:38+0000,-34.40,-43.32,-32.66,-44.16,-44.94,-52.21
2023/01/24 04:08:30+0000,-34.42,-42.75,-32.31,-44.12,-45.10,-50.97
2023/01/24 04:09:22+0000,-34.78,-42.45,-31.65,-43.52,-44.28,-51.96
2023/01/24 04:10:15+0000,-35.79,-43.20,-31.88,-43.59,-45.18,-51.59
2023/01/24 04:11:14+0000,-34.96,-44.06,-32.43,-44.34,-44.95,-51.14
2023/01/24 04:12:06+0000,-34.85,-43.68,-32.18,-43.98,-44.34,-52.20
2023/01/24 04:12:58+0000,-35.42,-42.71,-32.26,-44.76,-44.23,-51.30
2023/01/24 04:13:50+0000,-34.91,-43.54,-33.40,-45.34,-44.61,-51.89
2023/01/24 04:14:42+0000,-35.14,-41.29,-32.64,-45.47,-44.73,-51.59
2023/01/24 04:15:34+0000,-34.93,-42.30,-33.66,-44.03,-44.43,-51.44
2023/01/24 04:16:26+0000,-32.52,-43.09,-32.95,-43.62,-44.62,-51.46
2023/01/24 04:17:18+0000,-35.05,-42.96,-33.18,-43.09,-43.43,-50.87
2023/01/24 04:18:11+0000,-33.99,-42.35,-32.98,-42.77,-44.43,-51.52
2023/01/24 04:19:03+0000,-34.52,-42.97,-32.70,-42.34,-45.08,-51.65
2023/01/24 04:19:55+0000,-34.29,-41.96,-32.80,-43.33,-45.42,-51.32
2023/01/24 04:20:47+0000,-34.06,-43.50,-33.66,-42.99,-45.14,-51.25
2023/01/24 04:21:46+0000,-34.10,-44.87,-32.61,-42.42,-44.69,-50.63
2023/01/24 04:22:38+0000,-34.79,-42.82,-32.68,-42.27,-44.49,-50.84
2023/01/24 04:23:30+0000,-34.26,-42.29,-33.31,-42.22,-45.03,-51.83
2023/01/24 04:24:22+0000,-34.78,-43.97,-32.20,-42.98,-44.98,-50.91
2023/01/24 04:25:14+0000,-34.22,-44.31,-32.97,-42.28,-45.28,-51.34
2023/01/24 04:26:06+0000,-32.59,-43.36,-32.30,-42.93,-45.26,-50.97
2023/01/24 04:26:58+0000,-34.21,-42.24,-33.31,-42.30,-45.25,-52.25
2023/01/24 04:27:50+0000,-35.33,-43.61,-33.05,-43.31,-45.08,-51.07
2023/01/24 04:28:42+0000,-34.49,-43.02,-32.71,-42.64,-45.34,-51.55
2023/01/24 04:29:35+0000,-33.77,-41.74,-32.03,-42.84,-45.04,-51.18
2023/01/24 04:30:27+0000,-33.00,-43.03,-32.17,-41.11,-44.60,-51.30
2023/01/24 04:31:26+0000,-34.33,-43.41,-32.85,-42.67,-45.07,-50.89
2023/01/24 04:32:18+0000,-33.03,-43.30,-32.06,-42.77,-44.53,-51.06
2023/01/24 04:33:10+0000,-34.09,-43.94,-32.39,-42.59,-44.92,-51.00
2023/01/24 04:34:02+0000,-34.36,-42.77,-32.82,-43.63,-45.44,-50.87
2023/01/24 04:34:54+0000,-34.08,-42.82,-31.95,-42.23,-44.97,-51.64
2023/01/24 04:35:46+0000,-33.81,-44.15,-31.47,-42.51,-45.09,-51.69
2023/01/24 04:36:38+0000,-34.16,-44.05,-32.25,-42.14,-44.65,-51.66
2023/01/24 04:37:30+0000,-33.11,-41.61,-31.77,-43.44,-44.20,-51.03
2023/01/24 04:38:22+0000,-34.56,-44.08,-32.52,-43.28,-45.31,-51.18
2023/01/24 04:39:15+0000,-33.06,-43.17,-32.29,-43.16,-45.33,-51.74
2023/01/24 04:40:07+0000,-34.72,-45.03,-32.59,-42.53,-45.60,-51.38
2023/01/24 04:41:07+0000,-33.92,-44.09,-32.95,-42.59,-44.76,-51.97
2023/01/24 04:41:59+0000,-34.04,-43.21,-33.03,-42.24,-45.37,-51.47